CCA121 ZBAA-ZKPY

Flight info

Callsign CCA121
Flight time 1h 28m
Altitude 41100
Route DOTRA5Y DOTRA B334 KAKAT W31 CHG A575 BIDIB A345 GASAN GAS11A
Aircraft A359/H-SDE2E3GHIJ3J4J5LM1ORWXY/LB1D1

Departure

Time 2026-04-24 23:39
Airport Beijing Capital International Airport (ZBAA)

Arrival

Time 2026-04-25 01:07
Airport Pyongyang Sunan International Airport (ZKPY)
Time Latitude Longitude Altitude Speed Heading
2026-04-24 23:23 40.05820 116.60404 133 ft 0 kts 263°
2026-04-24 23:31 40.05821 116.60407 133 ft 1 kts 263°
2026-04-24 23:32 40.05823 116.60430 129 ft 3 kts 263°
2026-04-24 23:32 40.05825 116.60456 118 ft 3 kts 263°
2026-04-24 23:32 40.05829 116.60480 121 ft 3 kts 233°
2026-04-24 23:32 40.05838 116.60489 122 ft 2 kts 174°
2026-04-24 23:33 40.05850 116.60487 122 ft 3 kts 173°
2026-04-24 23:33 40.05863 116.60485 125 ft 3 kts 173°
2026-04-24 23:33 40.05875 116.60483 124 ft 0 kts 173°
2026-04-24 23:36 40.05848 116.60487 129 ft 11 kts 174°
2026-04-24 23:37 40.05790 116.60498 127 ft 1 kts 172°
2026-04-24 23:37 40.05752 116.60477 127 ft 9 kts 232°
2026-04-24 23:37 40.05725 116.60188 128 ft 20 kts 263°
2026-04-24 23:38 40.05712 116.60049 130 ft 0 kts 263°
2026-04-24 23:38 40.05732 116.59988 126 ft 18 kts 316°
2026-04-24 23:38 40.05928 116.59959 126 ft 44 kts 353°
2026-04-24 23:38 40.06497 116.59867 124 ft 119 kts 353°
2026-04-24 23:39 40.07517 116.59709 309 ft 161 kts 354°
2026-04-24 23:39 40.08625 116.59530 1109 ft 161 kts 354°
2026-04-24 23:39 40.09795 116.59353 1677 ft 182 kts 353°
2026-04-24 23:39 40.11127 116.59147 1845 ft 204 kts 353°
2026-04-24 23:40 40.12609 116.58910 2063 ft 225 kts 353°
2026-04-24 23:40 40.14232 116.58653 2315 ft 245 kts 353°
2026-04-24 23:40 40.15984 116.58376 2620 ft 261 kts 353°
2026-04-24 23:40 40.17793 116.58090 3090 ft 270 kts 352°
2026-04-24 23:41 40.19684 116.57792 3633 ft 275 kts 352°
2026-04-24 23:41 40.21592 116.57492 4238 ft 278 kts 352°
2026-04-24 23:41 40.23508 116.57190 4838 ft 280 kts 351°
2026-04-24 23:41 40.25459 116.56883 5436 ft 282 kts 351°
2026-04-24 23:42 40.27409 116.56569 6018 ft 284 kts 350°
2026-04-24 23:42 40.29370 116.56240 6591 ft 285 kts 351°
2026-04-24 23:42 40.31339 116.55905 7180 ft 285 kts 351°
2026-04-24 23:42 40.33307 116.55566 7773 ft 285 kts 351°
2026-04-24 23:43 40.35272 116.55229 8360 ft 285 kts 351°
2026-04-24 23:43 40.37244 116.54893 8737 ft 287 kts 351°
2026-04-24 23:43 40.39229 116.54556 8842 ft 288 kts 351°
2026-04-24 23:43 40.41218 116.54221 8838 ft 288 kts 351°
2026-04-24 23:44 40.43222 116.54106 8870 ft 289 kts
2026-04-24 23:44 40.45230 116.54252 9136 ft 291 kts
2026-04-24 23:44 40.47251 116.54412 9713 ft 291 kts
2026-04-24 23:44 40.49278 116.54566 10215 ft 293 kts
2026-04-24 23:45 40.51363 116.54749 10430 ft 306 kts
2026-04-24 23:45 40.53461 116.55475 10575 ft 322 kts 23°
2026-04-24 23:45 40.55356 116.57146 10789 ft 335 kts 38°
2026-04-24 23:45 40.57145 116.59171 10974 ft 345 kts 39°
2026-04-24 23:46 40.58981 116.61269 11238 ft 351 kts 39°
2026-04-24 23:46 40.60840 116.63377 11588 ft 355 kts 39°
2026-04-24 23:46 40.62724 116.65506 11942 ft 358 kts 39°
2026-04-24 23:46 40.64620 116.67646 12313 ft 361 kts 39°
2026-04-24 23:47 40.66533 116.69804 12695 ft 363 kts 39°
2026-04-24 23:47 40.68455 116.71976 13100 ft 365 kts 39°
2026-04-24 23:47 40.70383 116.74157 13481 ft 367 kts 39°
2026-04-24 23:47 40.72326 116.76335 13841 ft 368 kts 38°
2026-04-24 23:48 40.74422 116.78294 14163 ft 368 kts 28°
2026-04-24 23:48 40.76754 116.79661 14497 ft 367 kts 15°
2026-04-24 23:48 40.79203 116.80351 14845 ft 365 kts
2026-04-24 23:48 40.81735 116.80648 15211 ft 365 kts
2026-04-24 23:49 40.84273 116.80802 15551 ft 366 kts 359°
2026-04-24 23:49 40.86828 116.80896 15893 ft 368 kts 359°
2026-04-24 23:49 40.89390 116.80980 16231 ft 370 kts 359°
2026-04-24 23:49 40.91967 116.81072 16558 ft 372 kts 359°
2026-04-24 23:50 40.94560 116.81181 16904 ft 374 kts 359°
2026-04-24 23:50 40.97166 116.81303 17241 ft 376 kts 359°
2026-04-24 23:50 40.99793 116.81436 17581 ft 378 kts 359°
2026-04-24 23:50 41.02425 116.81573 17905 ft 380 kts 359°
2026-04-24 23:51 41.05076 116.81712 18236 ft 382 kts 359°
2026-04-24 23:51 41.07748 116.81854 18532 ft 384 kts 359°
2026-04-24 23:51 41.10414 116.81995 18843 ft 385 kts 359°
2026-04-24 23:51 41.13096 116.82135 19146 ft 386 kts 359°
2026-04-24 23:52 41.15793 116.82277 19441 ft 388 kts 359°
2026-04-24 23:52 41.18490 116.82419 19758 ft 389 kts 359°
2026-04-24 23:52 41.21204 116.82562 20051 ft 390 kts 359°
2026-04-24 23:52 41.23916 116.82704 20344 ft 392 kts 359°
2026-04-24 23:53 41.26619 116.82846 20649 ft 393 kts 359°
2026-04-24 23:53 41.29392 116.82991 20940 ft 395 kts 359°
2026-04-24 23:53 41.32140 116.83135 21232 ft 396 kts 359°
2026-04-24 23:53 41.34889 116.83279 21516 ft 398 kts 359°
2026-04-24 23:54 41.37623 116.83424 21835 ft 399 kts 358°
2026-04-24 23:54 41.40448 116.83574 22125 ft 400 kts 358°
2026-04-24 23:54 41.43199 116.83719 22405 ft 402 kts 358°
2026-04-24 23:54 41.45997 116.83867 22684 ft 404 kts 358°
2026-04-24 23:55 41.48808 116.84015 22967 ft 405 kts 358°
2026-04-24 23:55 41.51632 116.84164 23250 ft 407 kts 358°
2026-04-24 23:55 41.54463 116.84314 23539 ft 408 kts 358°
2026-04-24 23:55 41.57307 116.84465 23785 ft 410 kts 358°
2026-04-24 23:56 41.60171 116.84683 24025 ft 413 kts
2026-04-24 23:56 41.63027 116.85322 24280 ft 418 kts
2026-04-24 23:56 41.65813 116.86524 24546 ft 424 kts 18°
2026-04-24 23:56 41.68447 116.88326 24813 ft 429 kts 28°
2026-04-24 23:57 41.70855 116.90734 25060 ft 435 kts 38°
2026-04-24 23:57 41.72952 116.93711 25318 ft 442 kts 48°
2026-04-24 23:57 41.74652 116.97166 25522 ft 448 kts 59°
2026-04-24 23:57 41.76067 117.00898 25781 ft 451 kts 61°
2026-04-24 23:58 41.77400 117.04711 26048 ft 453 kts 62°
2026-04-24 23:58 41.78684 117.08509 26320 ft 454 kts 63°
2026-04-24 23:58 41.80000 117.12422 26599 ft 455 kts 63°
2026-04-24 23:58 41.81309 117.16290 26866 ft 456 kts 62°
2026-04-24 23:59 41.82632 117.20165 27145 ft 458 kts 62°
2026-04-24 23:59 41.83952 117.24013 27430 ft 459 kts 62°
2026-04-24 23:59 41.85313 117.27964 27730 ft 461 kts 62°
2026-04-24 23:59 41.86637 117.31809 28016 ft 462 kts 62°
2026-04-25 00:00 41.87980 117.35712 28297 ft 464 kts 62°
2026-04-25 00:00 41.89344 117.39682 28590 ft 466 kts 62°
2026-04-25 00:00 41.90697 117.43624 28920 ft 467 kts 62°
2026-04-25 00:00 41.92055 117.47587 29264 ft 468 kts 62°
2026-04-25 00:01 41.93414 117.51560 29580 ft 469 kts 62°
2026-04-25 00:01 41.94794 117.55603 29887 ft 471 kts 62°
2026-04-25 00:01 41.96170 117.59639 30152 ft 475 kts 62°
2026-04-25 00:01 41.97524 117.63613 30432 ft 476 kts 62°
2026-04-25 00:02 41.98904 117.67672 30765 ft 477 kts 62°
2026-04-25 00:02 42.00284 117.71739 31068 ft 479 kts 61°
2026-04-25 00:02 42.01666 117.75816 31375 ft 480 kts 61°
2026-04-25 00:02 42.03054 117.79917 31663 ft 482 kts 61°
2026-04-25 00:03 42.04442 117.84024 31950 ft 484 kts 61°
2026-04-25 00:03 42.05840 117.88168 32253 ft 486 kts 61°
2026-04-25 00:03 42.07237 117.92323 32485 ft 489 kts 61°
2026-04-25 00:03 42.08640 117.96495 32747 ft 490 kts 61°
2026-04-25 00:04 42.10049 118.00687 33040 ft 491 kts 61°
2026-04-25 00:04 42.11459 118.04884 33323 ft 493 kts 61°
2026-04-25 00:04 42.12867 118.09084 33646 ft 494 kts 61°
2026-04-25 00:04 42.14284 118.13320 33882 ft 496 kts 61°
2026-04-25 00:05 42.15699 118.17553 34140 ft 497 kts 61°
2026-04-25 00:05 42.17039 118.21877 34314 ft 503 kts 66°
2026-04-25 00:05 42.17974 118.26453 34480 ft 510 kts 76°
2026-04-25 00:05 42.18388 118.31217 34803 ft 513 kts 83°
2026-04-25 00:06 42.18549 118.36010 35113 ft 513 kts 85°
2026-04-25 00:06 42.18631 118.40838 35423 ft 513 kts 86°
2026-04-25 00:06 42.18677 118.45664 35715 ft 513 kts 86°
2026-04-25 00:06 42.18712 118.50488 36007 ft 513 kts 86°
2026-04-25 00:07 42.18748 118.55280 36302 ft 513 kts 86°
2026-04-25 00:07 42.18789 118.60030 36583 ft 512 kts 86°
2026-04-25 00:07 42.18835 118.64838 36877 ft 512 kts 86°
2026-04-25 00:07 42.18885 118.69627 37179 ft 512 kts 86°
2026-04-25 00:08 42.18898 118.74426 37453 ft 513 kts 89°
2026-04-25 00:08 42.18526 118.79226 37748 ft 515 kts 98°
2026-04-25 00:08 42.17612 118.83898 38025 ft 518 kts 108°
2026-04-25 00:08 42.16162 118.88350 38313 ft 518 kts 116°
2026-04-25 00:09 42.14521 118.92639 38810 ft 512 kts 117°
2026-04-25 00:09 42.12833 118.96851 39098 ft 510 kts 118°
2026-04-25 00:09 42.11118 119.01055 39229 ft 512 kts 118°
2026-04-25 00:09 42.09403 119.05245 39383 ft 513 kts 118°
2026-04-25 00:10 42.07682 119.09465 39550 ft 513 kts 118°
2026-04-25 00:10 42.05975 119.13669 39723 ft 513 kts 118°
2026-04-25 00:10 42.04259 119.17906 39925 ft 512 kts 118°
2026-04-25 00:10 42.02588 119.22039 40206 ft 509 kts 118°
2026-04-25 00:11 42.00894 119.26230 40366 ft 510 kts 118°
2026-04-25 00:11 41.99746 119.29066 40452 ft 511 kts 118°
2026-04-25 00:11 41.97497 119.34615 40618 ft 511 kts 118°
2026-04-25 00:11 41.95796 119.38806 40751 ft 512 kts 118°
2026-04-25 00:12 41.94087 119.43009 40895 ft 512 kts 119°
2026-04-25 00:12 41.92387 119.47226 40941 ft 512 kts 118°
2026-04-25 00:12 41.89043 119.55663 40950 ft 511 kts 118°
2026-04-25 00:13 41.85706 119.64088 40955 ft 511 kts 118°
2026-04-25 00:13 41.82353 119.72500 40952 ft 511 kts 118°
2026-04-25 00:14 41.79006 119.80855 40958 ft 511 kts 119°
2026-04-25 00:14 41.75637 119.89237 40958 ft 511 kts 119°
2026-04-25 00:15 41.72252 119.97635 40962 ft 511 kts 119°
2026-04-25 00:15 41.68873 120.05998 40964 ft 511 kts 119°
2026-04-25 00:16 41.65484 120.14359 40966 ft 511 kts 119°
2026-04-25 00:16 41.62083 120.22727 40964 ft 511 kts 119°
2026-04-25 00:17 41.58687 120.31059 40968 ft 511 kts 120°
2026-04-25 00:17 41.55501 120.39556 40969 ft 512 kts 110°
2026-04-25 00:18 41.54091 120.48828 40975 ft 511 kts 90°
2026-04-25 00:18 41.54372 120.58281 40970 ft 511 kts 85°
2026-04-25 00:19 41.54916 120.67759 40973 ft 512 kts 84°
2026-04-25 00:19 41.55367 120.75625 40977 ft 512 kts 85°
2026-04-25 00:20 41.55872 120.85109 40975 ft 512 kts 85°
2026-04-25 00:20 41.56350 120.94574 40984 ft 511 kts 85°
2026-04-25 00:21 41.56896 121.05671 40996 ft 513 kts 85°
2026-04-25 00:21 41.57353 121.15123 40981 ft 514 kts 85°
2026-04-25 00:22 41.57769 121.23097 40988 ft 513 kts 84°
2026-04-25 00:22 41.58526 121.32564 40988 ft 513 kts 82°
2026-04-25 00:23 41.59336 121.42071 40982 ft 513 kts 83°
2026-04-25 00:23 41.60089 121.51494 40988 ft 514 kts 83°
2026-04-25 00:24 41.60814 121.61005 40987 ft 515 kts 83°
2026-04-25 00:24 41.61524 121.70512 40990 ft 515 kts 83°
2026-04-25 00:25 41.62230 121.80039 40992 ft 515 kts 83°
2026-04-25 00:25 41.62929 121.89580 40991 ft 515 kts 84°
2026-04-25 00:26 41.63621 121.99106 40990 ft 515 kts 84°
2026-04-25 00:26 41.64270 122.08655 40990 ft 516 kts 87°
2026-04-25 00:27 41.63763 122.18207 40990 ft 516 kts 98°
2026-04-25 00:27 41.62724 122.27718 40983 ft 517 kts 99°
2026-04-25 00:28 41.61610 122.37213 40991 ft 517 kts 99°
2026-04-25 00:28 41.60499 122.46705 40990 ft 517 kts 99°
2026-04-25 00:29 41.59402 122.56136 40991 ft 517 kts 99°
2026-04-25 00:29 41.58295 122.65629 40990 ft 517 kts 99°
2026-04-25 00:30 41.57179 122.75133 40993 ft 517 kts 99°
2026-04-25 00:30 41.56056 122.84619 40993 ft 517 kts 99°
2026-04-25 00:31 41.54924 122.94102 40987 ft 517 kts 99°
2026-04-25 00:31 41.53785 123.03583 40992 ft 518 kts 100°
2026-04-25 00:32 41.52636 123.13084 40991 ft 518 kts 100°
2026-04-25 00:32 41.51479 123.22572 40992 ft 518 kts 100°
2026-04-25 00:33 41.50318 123.32069 40991 ft 518 kts 99°
2026-04-25 00:33 41.49254 123.41523 40992 ft 518 kts 99°
2026-04-25 00:34 41.48207 123.51091 40989 ft 518 kts 99°
2026-04-25 00:34 41.47151 123.60535 40990 ft 518 kts 99°
2026-04-25 00:35 41.46069 123.70040 40995 ft 518 kts 99°
2026-04-25 00:35 41.44976 123.79537 41003 ft 518 kts 99°
2026-04-25 00:36 41.43877 123.89029 41004 ft 519 kts 99°
2026-04-25 00:36 41.42770 123.98526 41016 ft 519 kts 100°
2026-04-25 00:37 41.41119 124.07851 41027 ft 515 kts 118°
2026-04-25 00:37 41.39247 124.11847 41022 ft 507 kts 133°
2026-04-25 00:37 41.36714 124.15024 41034 ft 498 kts 149°
2026-04-25 00:38 41.33685 124.17186 41024 ft 488 kts 165°
2026-04-25 00:38 41.30430 124.18178 41033 ft 479 kts 180°
2026-04-25 00:38 41.23800 124.18018 41046 ft 478 kts 183°
2026-04-25 00:39 41.17166 124.18304 41048 ft 481 kts 181°
2026-04-25 00:39 41.10465 124.18977 41060 ft 483 kts 180°
2026-04-25 00:40 41.03735 124.19538 41073 ft 482 kts 181°
2026-04-25 00:40 40.97075 124.20187 41074 ft 483 kts 179°
2026-04-25 00:41 40.90408 124.20973 40638 ft 476 kts 179°
2026-04-25 00:41 40.87110 124.21367 39986 ft 477 kts 179°
2026-04-25 00:41 40.83805 124.21756 39440 ft 475 kts 179°
2026-04-25 00:42 40.80534 124.22136 38941 ft 472 kts 179°
2026-04-25 00:42 40.77241 124.22512 37851 ft 477 kts 178°
2026-04-25 00:42 40.73923 124.22886 36254 ft 480 kts 177°
2026-04-25 00:42 40.70571 124.23261 34525 ft 488 kts 176°
2026-04-25 00:43 40.67155 124.23645 32645 ft 496 kts 175°
2026-04-25 00:43 40.63712 124.24037 31074 ft 496 kts 176°
2026-04-25 00:43 40.60305 124.24426 29880 ft 487 kts 175°
2026-04-25 00:43 40.56963 124.24808 28520 ft 478 kts 176°
2026-04-25 00:44 40.53676 124.25180 27245 ft 470 kts 177°
2026-04-25 00:44 40.50448 124.25547 26361 ft 463 kts 176°
2026-04-25 00:44 40.47231 124.25913 25869 ft 462 kts 176°
2026-04-25 00:44 40.44049 124.26274 25719 ft 457 kts 176°
2026-04-25 00:45 40.40883 124.26632 25706 ft 456 kts 176°
2026-04-25 00:45 40.37725 124.26986 25707 ft 455 kts 177°
2026-04-25 00:45 40.34570 124.27364 25705 ft 456 kts 174°
2026-04-25 00:45 40.31471 124.28251 25705 ft 458 kts 163°
2026-04-25 00:46 40.28616 124.29978 25712 ft 460 kts 149°
2026-04-25 00:46 40.26147 124.32540 25369 ft 453 kts 135°
2026-04-25 00:46 40.23044 124.39667 23896 ft 455 kts 109°
2026-04-25 00:47 40.22120 124.43617 23245 ft 451 kts 106°
2026-04-25 00:47 40.21310 124.47551 22649 ft 447 kts 106°
2026-04-25 00:47 40.20178 124.51335 22435 ft 446 kts 118°
2026-04-25 00:47 40.18648 124.54827 22336 ft 442 kts 122°
2026-04-25 00:48 40.17028 124.58230 21691 ft 437 kts 123°
2026-04-25 00:48 40.15391 124.61573 20940 ft 436 kts 124°
2026-04-25 00:48 40.13745 124.64887 20274 ft 433 kts 124°
2026-04-25 00:48 40.12108 124.68158 19845 ft 424 kts 124°
2026-04-25 00:49 40.10534 124.71297 19505 ft 401 kts 124°
2026-04-25 00:49 40.09050 124.74248 19150 ft 377 kts 124°
2026-04-25 00:49 40.07651 124.77024 18801 ft 357 kts 125°
2026-04-25 00:49 40.06304 124.79690 18159 ft 347 kts 125°
2026-04-25 00:50 40.04978 124.82310 17351 ft 343 kts 125°
2026-04-25 00:50 40.03670 124.84891 16560 ft 340 kts 125°
2026-04-25 00:50 40.02374 124.87446 15783 ft 336 kts 125°
2026-04-25 00:50 40.01090 124.89976 15025 ft 333 kts 125°
2026-04-25 00:51 39.99817 124.92483 14261 ft 330 kts 125°
2026-04-25 00:51 39.98556 124.94967 13472 ft 328 kts 125°
2026-04-25 00:51 39.97301 124.97437 12684 ft 324 kts 126°
2026-04-25 00:51 39.96063 124.99873 11954 ft 323 kts 126°
2026-04-25 00:52 39.94819 125.02314 11534 ft 322 kts 127°
2026-04-25 00:52 39.93586 125.04728 11137 ft 319 kts 127°
2026-04-25 00:52 39.92363 125.07124 10745 ft 317 kts 127°
2026-04-25 00:52 39.91147 125.09512 10307 ft 316 kts 127°
2026-04-25 00:53 39.89934 125.11888 9905 ft 314 kts 127°
2026-04-25 00:53 39.88739 125.14228 9258 ft 307 kts 128°
2026-04-25 00:53 39.87561 125.16525 8553 ft 303 kts 128°
2026-04-25 00:53 39.86398 125.18798 8113 ft 301 kts 128°
2026-04-25 00:54 39.85235 125.21069 7976 ft 301 kts 128°
2026-04-25 00:54 39.84066 125.23346 7971 ft 301 kts 128°
2026-04-25 00:54 39.82907 125.25607 7976 ft 300 kts 128°
2026-04-25 00:54 39.81753 125.27854 7977 ft 299 kts 128°
2026-04-25 00:55 39.80594 125.30106 7971 ft 299 kts 128°
2026-04-25 00:55 39.79437 125.32349 7976 ft 299 kts 128°
2026-04-25 00:55 39.78284 125.34596 7981 ft 299 kts 128°
2026-04-25 00:55 39.77132 125.36838 7974 ft 299 kts 128°
2026-04-25 00:56 39.75976 125.39088 7981 ft 299 kts 128°
2026-04-25 00:56 39.74820 125.41327 7980 ft 298 kts 128°
2026-04-25 00:56 39.73601 125.43497 7971 ft 295 kts 137°
2026-04-25 00:56 39.71996 125.45033 7905 ft 281 kts 160°
2026-04-25 00:57 39.70198 125.45944 7501 ft 276 kts 166°
2026-04-25 00:57 39.68381 125.46736 7046 ft 276 kts 167°
2026-04-25 00:57 39.66571 125.47527 6820 ft 273 kts 166°
2026-04-25 00:57 39.64774 125.48327 6707 ft 271 kts 166°
2026-04-25 00:58 39.63019 125.49125 6475 ft 263 kts 165°
2026-04-25 00:58 39.61350 125.49887 6292 ft 244 kts 166°
2026-04-25 00:58 39.59804 125.50593 6093 ft 227 kts 166°
2026-04-25 00:58 39.58354 125.51250 5771 ft 217 kts 167°
2026-04-25 00:59 39.56941 125.51885 5330 ft 214 kts 167°
2026-04-25 00:59 39.55538 125.52516 4878 ft 212 kts 167°
2026-04-25 00:59 39.54155 125.53138 4479 ft 208 kts 166°
2026-04-25 00:59 39.52792 125.53759 4016 ft 206 kts 166°
2026-04-25 01:00 39.51428 125.54345 3731 ft 207 kts 167°
2026-04-25 01:00 39.50063 125.54959 3679 ft 208 kts 166°
2026-04-25 01:00 39.48697 125.55588 3508 ft 210 kts 166°
2026-04-25 01:00 39.47337 125.56217 3360 ft 202 kts 165°
2026-04-25 01:01 39.46059 125.56800 3258 ft 189 kts 166°
2026-04-25 01:01 39.44848 125.57341 3017 ft 185 kts 166°
2026-04-25 01:01 39.43633 125.57900 2711 ft 187 kts 166°
2026-04-25 01:01 39.42395 125.58435 2456 ft 186 kts 168°
2026-04-25 01:02 39.41179 125.58909 2260 ft 182 kts 168°
2026-04-25 01:02 39.39973 125.59373 1920 ft 180 kts 167°
2026-04-25 01:02 39.38764 125.59789 1535 ft 183 kts 165°
2026-04-25 01:02 39.37554 125.60277 1296 ft 178 kts 163°
2026-04-25 01:03 39.36409 125.60748 1389 ft 171 kts 165°
2026-04-25 01:03 39.35248 125.61196 1607 ft 175 kts 166°
2026-04-25 01:03 39.34083 125.61657 1702 ft 175 kts 165°
2026-04-25 01:03 39.32928 125.62129 1682 ft 175 kts 165°
2026-04-25 01:04 39.31759 125.62605 1642 ft 176 kts 166°
2026-04-25 01:04 39.30632 125.63042 1691 ft 159 kts 165°
2026-04-25 01:04 39.29649 125.63445 1696 ft 139 kts 166°
2026-04-25 01:04 39.28746 125.63800 1537 ft 134 kts 166°
2026-04-25 01:05 39.27864 125.64141 1348 ft 134 kts 165°
2026-04-25 01:05 39.26979 125.64490 1156 ft 133 kts 166°
2026-04-25 01:05 39.26086 125.64843 964 ft 134 kts 165°
2026-04-25 01:05 39.25191 125.65197 779 ft 134 kts 163°
2026-04-25 01:06 39.24300 125.65551 637 ft 135 kts 163°
2026-04-25 01:06 39.23705 125.65786 474 ft 138 kts 164°
2026-04-25 01:06 39.22507 125.66259 280 ft 127 kts 163°
2026-04-25 01:06 39.21964 125.66473 234 ft 127 kts 164°
2026-04-25 01:07 39.21114 125.66799 114 ft 123 kts 164°
2026-04-25 01:07 39.20585 125.67016 110 ft 38 kts 162°
2026-04-25 01:07 39.20361 125.67121 113 ft 15 kts 143°
2026-04-25 01:07 39.20277 125.67261 110 ft 18 kts 121°
2026-04-25 01:08 39.20215 125.67390 112 ft 22 kts 122°
2026-04-25 01:08 39.20178 125.67466 109 ft 19 kts 125°
2026-04-25 01:08 39.20155 125.67500 109 ft 2 kts 128°
2026-04-25 01:08 39.20153 125.67512 111 ft 0 kts 105°